Meteo orario Roma

Oggi, 17 Giugno, Giovedi

Tempo Temperatura Precipitazioni Vento Pressione Umidità
00:00 +23°C° 0 mm 1 m/s 759 mm Hg 73%
01:00 +23°C° 0 mm 1 m/s 759 mm Hg 74%
02:00 +22°C° 0 mm 1 m/s 759 mm Hg 76%
03:00 +22°C° 0 mm 1 m/s 759 mm Hg 77%
04:00 +22°C° 0 mm 1 m/s 759 mm Hg 78%
05:00 +23°C° 0 mm 1 m/s 760 mm Hg 73%
06:00 +24°C° 0 mm 1 m/s 760 mm Hg 69%
07:00 +25°C° 0 mm 1 m/s 760 mm Hg 64%
08:00 +27°C° 0 mm 1 m/s 760 mm Hg 57%
09:00 +29°C° 0 mm 1 m/s 760 mm Hg 50%
10:00 +31°C° 0 mm 1 m/s 760 mm Hg 43%
11:00 +32°C° 0 mm 2 m/s 760 mm Hg 41%
12:00 +34°C° 0 mm 3 m/s 760 mm Hg 38%
13:00 +34°C° 0 mm 3 m/s 759 mm Hg 36%
14:00 +33°C° 0 mm 3 m/s 759 mm Hg 38%
15:00 +31°C° 0 mm 3 m/s 759 mm Hg 40%
16:00 +30°C° 0 mm 3 m/s 759 mm Hg 42%
17:00 +29°C° 0 mm 3 m/s 760 mm Hg 47%
18:00 +28°C° 0 mm 2 m/s 760 mm Hg 52%
19:00 +27°C° 0 mm 2 m/s 760 mm Hg 57%
20:00 +25°C° 0 mm 1 m/s 760 mm Hg 62%
21:00 +24°C° 0 mm 1 m/s 760 mm Hg 66%
22:00 +21°C° 0 mm 0 m/s 761 mm Hg 71%
23:00 +23°C° 0 mm 1 m/s 760 mm Hg 71%

Domani, 18 Giugno, Venerdi

Tempo Temperatura Precipitazioni Vento Pressione Umidità
00:00 +22°C° 0 mm 1 m/s 760 mm Hg 72%
01:00 +22°C° 0 mm 1 m/s 760 mm Hg 73%
02:00 +22°C° 0 mm 1 m/s 760 mm Hg 74%
03:00 +21°C° 0 mm 1 m/s 760 mm Hg 75%
04:00 +21°C° 0 mm 1 m/s 760 mm Hg 77%
05:00 +22°C° 0 mm 1 m/s 760 mm Hg 72%
06:00 +24°C° 0 mm 1 m/s 760 mm Hg 67%
07:00 +25°C° 0 mm 1 m/s 761 mm Hg 62%
08:00 +27°C° 0 mm 1 m/s 761 mm Hg 54%
09:00 +29°C° 0 mm 1 m/s 761 mm Hg 46%
10:00 +31°C° 0 mm 1 m/s 761 mm Hg 38%
11:00 +32°C° 0 mm 2 m/s 760 mm Hg 35%
12:00 +34°C° 0 mm 2 m/s 760 mm Hg 33%
13:00 +34°C° 0 mm 3 m/s 760 mm Hg 30%
14:00 +34°C° 0 mm 3 m/s 760 mm Hg 31%
15:00 +34°C° 0 mm 3 m/s 760 mm Hg 33%
16:00 +33°C° 0 mm 3 m/s 760 mm Hg 34%
17:00 +31°C° 0 mm 3 m/s 760 mm Hg 39%
18:00 +29°C° 0 mm 2 m/s 760 mm Hg 44%
19:00 +28°C° 0 mm 2 m/s 760 mm Hg 49%
20:00 +26°C° 0 mm 1 m/s 760 mm Hg 54%
21:00 +25°C° 0 mm 1 m/s 760 mm Hg 58%
22:00 +22°C° 0 mm 0 m/s 760 mm Hg 62%
23:00 +23°C° 0 mm 1 m/s 760 mm Hg 63%

Dopodomani, 19 Giugno, Sabato

Tempo Temperatura Precipitazioni Vento Pressione Umidità
00:00 +23°C° 0 mm 1 m/s 760 mm Hg 64%
01:00 +22°C° 0 mm 1 m/s 760 mm Hg 64%
02:00 +22°C° 0 mm 1 m/s 760 mm Hg 64%
03:00 +22°C° 0 mm 1 m/s 760 mm Hg 63%
04:00 +22°C° 0 mm 1 m/s 760 mm Hg 62%
05:00 +23°C° 0 mm 1 m/s 760 mm Hg 57%
06:00 +25°C° 0 mm 1 m/s 760 mm Hg 53%
07:00 +26°C° 0 mm 1 m/s 760 mm Hg 48%
08:00 +29°C° 0 mm 1 m/s 760 mm Hg 41%
09:00 +31°C° 0 mm 1 m/s 759 mm Hg 34%
10:00 +34°C° 0 mm 1 m/s 759 mm Hg 27%
11:00 +35°C° 0 mm 2 m/s 759 mm Hg 28%
12:00 +36°C° 0 mm 3 m/s 759 mm Hg 29%
13:00 +36°C° 0 mm 5 m/s 759 mm Hg 30%
14:00 +36°C° 0 mm 4 m/s 758 mm Hg 31%
15:00 +35°C° 0 mm 3 m/s 758 mm Hg 33%
16:00 +34°C° 0 mm 3 m/s 758 mm Hg 35%
17:00 +33°C° 0 mm 3 m/s 758 mm Hg 40%
18:00 +30°C° 0 mm 2 m/s 758 mm Hg 45%
19:00 +29°C° 0 mm 2 m/s 758 mm Hg 49%
20:00 +28°C° 0 mm 2 m/s 758 mm Hg 52%
21:00 +26°C° 0 mm 1 m/s 758 mm Hg 55%
22:00 +25°C° 0 mm 1 m/s 759 mm Hg 58%
23:00 +25°C° 0 mm 1 m/s 758 mm Hg 59%

20 Giugno, Domenica

Tempo Temperatura Precipitazioni Vento Pressione Umidità
00:00 +25°C° 0 mm 1 m/s 758 mm Hg 59%
01:00 +24°C° 0 mm 1 m/s 758 mm Hg 59%
02:00 +24°C° 0 mm 1 m/s 758 mm Hg 60%
03:00 +24°C° 0 mm 1 m/s 758 mm Hg 60%
04:00 +24°C° 0 mm 1 m/s 758 mm Hg 61%
05:00 +25°C° 0 mm 1 m/s 758 mm Hg 57%
06:00 +27°C° 0 mm 1 m/s 758 mm Hg 53%
07:00 +28°C° 0 mm 1 m/s 758 mm Hg 50%
08:00 +30°C° 0 mm 1 m/s 758 mm Hg 45%
09:00 +33°C° 0 mm 1 m/s 758 mm Hg 39%
10:00 +35°C° 0 mm 1 m/s 758 mm Hg 34%
11:00 +37°C° 0 mm 2 m/s 757 mm Hg 32%
12:00 +38°C° 0 mm 2 m/s 757 mm Hg 29%
13:00 +40°C° 0 mm 2 m/s 756 mm Hg 27%
14:00 +38°C° 0 mm 3 m/s 757 mm Hg 31%
15:00 +37°C° 0 mm 3 m/s 757 mm Hg 35%
16:00 +35°C° 0 mm 3 m/s 757 mm Hg 39%
17:00 +34°C° 0 mm 3 m/s 757 mm Hg 43%
18:00 +31°C° 0 mm 2 m/s 757 mm Hg 48%
19:00 +30°C° 0 mm 1 m/s 757 mm Hg 52%
20:00 +29°C° 0 mm 1 m/s 757 mm Hg 54%
21:00 +28°C° 0 mm 1 m/s 757 mm Hg 57%
22:00 +27°C° 0 mm 1 m/s 756 mm Hg 59%
23:00 +27°C° 0 mm 1 m/s 756 mm Hg 59%

21 Giugno, Lunedi

Tempo Temperatura Precipitazioni Vento Pressione Umidità
00:00 +26°C° 0 mm 1 m/s 756 mm Hg 59%
01:00 +26°C° 0 mm 1 m/s 756 mm Hg 59%
02:00 +26°C° 0 mm 1 m/s 756 mm Hg 60%
03:00 +26°C° 0 mm 1 m/s 756 mm Hg 60%
04:00 +26°C° 0 mm 1 m/s 756 mm Hg 60%
05:00 +26°C° 0 mm 1 m/s 756 mm Hg 59%
06:00 +27°C° 0 mm 2 m/s 756 mm Hg 59%
07:00 +28°C° 0 mm 2 m/s 756 mm Hg 58%
08:00 +29°C° 0 mm 2 m/s 756 mm Hg 53%
09:00 +31°C° 0 mm 3 m/s 757 mm Hg 47%
10:00 +34°C° 0 mm 3 m/s 757 mm Hg 41%
11:00 +35°C° 0 mm 3 m/s 756 mm Hg 37%
12:00 +37°C° 0 mm 4 m/s 756 mm Hg 33%
13:00 +38°C° 0 mm 4 m/s 756 mm Hg 28%
14:00 +37°C° 0 mm 4 m/s 756 mm Hg 31%
15:00 +36°C° 0 mm 4 m/s 756 mm Hg 35%
16:00 +35°C° 0 mm 5 m/s 756 mm Hg 38%
17:00 +34°C° 0 mm 4 m/s 756 mm Hg 41%
18:00 +33°C° 0 mm 3 m/s 756 mm Hg 45%
19:00 +31°C° 0 mm 3 m/s 756 mm Hg 48%
20:00 +29°C° 0 mm 3 m/s 756 mm Hg 55%
21:00 +27°C° 0 mm 2 m/s 756 mm Hg 61%
22:00 +26°C° 0 mm 2 m/s 757 mm Hg 68%
23:00 +25°C° 0 mm 2 m/s 757 mm Hg 70%

22 Giugno, Martedi

Tempo Temperatura Precipitazioni Vento Pressione Umidità
00:00 +25°C° 0 mm 2 m/s 757 mm Hg 72%
01:00 +25°C° 0 mm 1 m/s 757 mm Hg 74%
02:00 +24°C° 0 mm 1 m/s 756 mm Hg 74%
03:00 +24°C° 0 mm 1 m/s 756 mm Hg 74%
04:00 +24°C° 0 mm 1 m/s 756 mm Hg 74%
05:00 +25°C° 0 mm 1 m/s 756 mm Hg 67%
06:00 +27°C° 0 mm 1 m/s 756 mm Hg 60%
07:00 +28°C° 0 mm 1 m/s 756 mm Hg 53%
08:00 +30°C° 0 mm 2 m/s 756 mm Hg 50%
09:00 +33°C° 0 mm 3 m/s 757 mm Hg 46%
10:00 +34°C° 0 mm 3 m/s 757 mm Hg 43%
11:00 +35°C° 0 mm 3 m/s 757 mm Hg 41%
12:00 +36°C° 0 mm 3 m/s 756 mm Hg 39%
13:00 +37°C° 0 mm 3 m/s 756 mm Hg 37%
14:00 +37°C° 0 mm 4 m/s 756 mm Hg 39%
15:00 +36°C° 0 mm 4 m/s 756 mm Hg 42%
16:00 +35°C° 0 mm 4 m/s 756 mm Hg 44%
17:00 +34°C° 0 mm 3 m/s 757 mm Hg 49%
18:00 +31°C° 0 mm 3 m/s 757 mm Hg 54%
19:00 +30°C° 0 mm 2 m/s 757 mm Hg 59%
20:00 +28°C° 0 mm 2 m/s 757 mm Hg 65%
21:00 +27°C° 0 mm 1 m/s 757 mm Hg 72%
22:00 +25°C° 0 mm 1 m/s 758 mm Hg 78%
23:00 +25°C° 0 mm 1 m/s 758 mm Hg 79%
Mostrare altro

Abbiamo bisogno del tuo consenso

Meteoprog e i nostri fornitori di servizi possono memorizzare e accedere a dati personali come cookie, identificatori di dispositivi o altre tecnologie simili sul tuo dispositivo e possono elaborare tali dati per personalizzare i contenuti e gli annunci, nonché fornire funzionalità dei social media e analizzarne il traffico.

  • Archiviare e/o accedere alle informazioni sul tuo dispositivo

    Cookie, identificatori di dispositivi o altre informazioni possono essere memorizzati o resi accessibili sul tuo dispositivo per le finalità sopra indicate.

  • Annunci e contenuti personalizzati, misurazione di annunci e contenuti, approfondimenti sul pubblico e sviluppo di prodotti

    Gli annunci e i contenuti possono essere personalizzati in base a un profilo. È possibile aggiungere più dati per personalizzare meglio annunci e contenuti. È possibile misurare il rendimento degli annunci e dei contenuti. È possibile ricavare informazioni sul pubblico che ha visto gli annunci e i contenuti. Tali dati possono essere utilizzati per sviluppare o migliorare l'esperienza, i sistemi e il software dell'utente.

Cliccando su “Accetto”, acconsenti all'uso di cookie, identificatori di dispositivo, web beacon o altre tecnologie simili. Puoi modificare le impostazioni nel browser del tuo dispositivo.

Per determinati scopi, è possibile fare affidamento su interessi legali, piuttosto che sul consenso. Puoi approfondire questo argomento consultando la nostra Informativa sulla privacy e sui cookie.